Regional Weather Roundup
Issued by NWS

Home | Current Version | Previous Version | Graphics & Text | Print | Product List | Glossary Off
Versions: 1 2 3 4 5 6 7 8 9 10 11 12 13 14 15 16 17 18 19 20 21 22 23 24 25 26 27 28 29 30 31 32 33 34 35 36 37 38 39 40 41 42 43 44 45 46 47 48 49 50

000
ASUS43 KFSD 221610
RWRSD

WEATHER ROUNDUP FOR SOUTH DAKOTA
NATIONAL WEATHER SERVICE SIOUX FALLS SD
1100 AM CDT TUE JUL 22 2014

NOTE: "FAIR" INDICATES FEW OR NO CLOUDS BELOW 12,000 FEET WITH NO
SIGNIFICANT WEATHER AND/OR OBSTRUCTIONS TO VISIBILITY.


SDZ001>005-009-010-012>017-221700-
NORTHWEST AND NORTH CENTRAL SOUTH DAKOTA

CITY           SKY/WX    TMP DP  RH WIND       PRES   REMARKS
BUFFALO          N/A     76  60  57 SE8       30.15S
FAITH            N/A     74  62  66 NE7       30.20R
MOBRIDGE       MOSUNNY   72  63  73 N8        30.16S
$$

SDZ012>016-024>037-041>051-057-063-072>074-221700-
SOUTHWEST AND SOUTH CENTRAL SOUTH DAKOTA

CITY           SKY/WX    TMP DP  RH WIND       PRES   REMARKS
RAPID CTY ARPT SUNNY     76  64  66 CALM      30.22S
PIERRE         PTSUNNY   72  63  73 NE14      30.14R
CUSTER         SUNNY     75  52  44 VRB3      30.34S
ELLSWORTH AFB  SUNNY     76  63  63 VRB2      30.22S
PHILIP         SUNNY     77  63  61 NE7       30.16F
PINE RIDGE     SUNNY     78  61  55 N8        30.22R
WINNER         FAIR      73  64  73 N12       30.15R
$$

SDZ004>011-016>023-039-040-221700-
NORTHEAST SOUTH DAKOTA

CITY           SKY/WX    TMP DP  RH WIND       PRES   REMARKS
ABERDEEN       MOSUNNY   73  61  65 N15       30.14R
WATERTOWN      MOSUNNY   74  57  55 N22G30    30.10R
SISSETON         N/A     73  61  65 N16       30.10R
$$

SDZ017-020-022-023-036>040-048>070-221700-
SOUTHEAST SOUTH DAKOTA

CITY           SKY/WX    TMP DP  RH WIND       PRES   REMARKS
SIOUX FALLS    PTSUNNY   77  66  68 N12G20    30.08R
HURON          CLOUDY    74  64  71 N15       30.11R
CHAMBERLAIN    CLOUDY    71  64  78 NE8       30.13S
MITCHELL       MOSUNNY   75  65  70 MISG      30.12R
YANKTON        PTSUNNY   75  66  73 NW14G20   30.10R
$$

ABBREVIATIONS USED IN REMARKS
   TC - TEMPERATURE IN CELSIUS
  WCI - WIND CHILL INDEX
   HX - HEAT INDEX
  VSB - VISIBILITY



USA.gov is the U.S. government's official web portal to all federal, state and local government web resources and services.